QPF
0.00 0.00 0.00 0.00 0.00 0.00 0.00 0.00 0.00 0.00 0.00 0.00 0.00 0.00 0.00 0.00 0.00 0.00 0.00 0.00 0.00 0.00 0.00 0.00 0.01 0.01 0.01 0.02 0.03 0.03 0.03 0.02 0.03 0.04 0.03 0.01 0.01 0.01 0.01 0.01 0.01 0.02 0.02
0.00 0.00 0.00 0.00 0.00 0.00 0.00 0.00 0.00 0.00 0.00 0.00 0.00 0.00 0.00 0.00 0.00 0.00 0.00 0.00 0.00 0.00 0.00 0.00 0.00 0.01 0.02 0.03 0.04 0.04 0.04 0.03 0.03 0.03 0.03 0.02 0.02 0.01 0.02 0.02 0.01 0.01 0.02
0.00 0.00 0.00 0.00 0.00 0.00 0.00 0.00 0.00 0.00 0.00 0.00 0.00 0.00 0.00 0.00 0.00 0.00 0.00 0.00 0.00 0.01 0.00 0.00 0.00 0.01 0.02 0.02 0.03 0.02 0.02 0.02 0.03 0.02 0.03 0.03 0.03 0.02 0.03 0.02 0.02 0.02 0.01
0.00 0.00 0.00 0.00 0.00 0.00 0.00 0.00 0.00 0.00 0.00 0.00 0.00 0.00 0.00 0.00 0.00 0.00 0.00 0.00 0.00 0.00 0.00 0.00 0.01 0.01 0.01 0.01 0.02 0.02 0.02 0.02 0.02 0.01 0.01 0.01 0.02 0.02 0.03 0.03 0.03 0.03 0.02
0.00 0.00 0.00 0.00 0.00 0.00 0.00 0.00 0.00 0.00 0.00 0.00 0.00 0.00 0.00 0.00 0.00 0.00 0.00 0.00 0.00 0.00 0.00 0.00 0.00 0.00 0.00 0.02 0.01 0.01 0.01 0.02 0.02 0.02 0.02 0.01 0.02 0.02 0.02 0.02 0.02 0.03 0.03
0.00 0.00 0.00 0.00 0.00 0.00 0.00 0.00 0.00 0.00 0.00 0.00 0.00 0.00 0.00 0.00 0.00 0.00 0.00 0.00 0.00 0.00 0.00 0.00 0.00 0.00 0.00 0.01 0.00 0.00 0.00 0.00 0.01 0.01 0.02 0.02 0.02 0.02 0.02 0.02 0.02 0.02 0.02
0.00 0.00 0.00 0.00 0.00 0.00 0.00 0.00 0.00 0.00 0.00 0.00 0.00 0.00 0.00 0.00 0.00 0.00 0.00 0.00 0.00 0.00 0.00 0.00 0.00 0.00 0.00 0.00 0.00 0.00 0.00 0.01 0.01 0.01 0.01 0.01 0.01 0.02 0.02 0.02 0.02 0.02 0.02
0.00 0.00 0.00 0.00 0.00 0.00 0.00 0.00 0.00 0.00 0.00 0.00 0.00 0.00 0.00 0.00 0.00 0.00 0.00 0.00 0.00 0.00 0.00 0.00 0.00 0.00 0.00 0.00 0.00 0.00 0.00 0.01 0.01 0.01 0.01 0.01 0.00 0.00 0.01 0.01 0.01 0.02 0.02
0.00 0.00 0.00 0.00 0.00 0.00 0.00 0.00 0.00 0.00 0.00 0.00 0.00 0.00 0.00 0.00 0.00 0.00 0.00 0.00 0.00 0.00 0.00 0.00 0.00 0.00 0.00 0.00 0.00 0.00 0.01 0.01 0.01 0.01 0.01 0.00 0.00 0.00 0.01 0.01 0.02 0.02 0.02
0.00 0.00 0.00 0.00 0.00 0.00 0.00 0.00 0.00 0.00 0.00 0.00 0.00 0.00 0.00 0.00 0.00 0.00 0.00 0.00 0.00 0.00 0.00 0.00 0.00 0.00 0.00 0.00 0.00 0.00 0.00 0.00 0.00 0.01 0.01 0.01 0.00 0.00 0.01 0.01 0.02 0.03 0.03
0.00 0.00 0.00 0.00 0.00 0.00 0.00 0.00 0.00 0.00 0.00 0.00 0.00 0.00 0.00 0.00 0.00 0.00 0.00 0.00 0.00 0.00 0.01 0.01 0.01 0.00 0.00 0.00 0.00 0.00 0.00 0.00 0.00 0.01 0.01 0.02 0.02 0.01 0.02 0.02 0.03 0.03 0.03
0.00 0.00 0.00 0.00 0.00 0.00 0.00 0.00 0.00 0.00 0.00 0.00 0.00 0.00 0.00 0.00 0.00 0.00 0.00 0.00 0.00 0.00 0.01 0.01 0.01 0.00 0.00 0.00 0.00 0.00 0.00 0.00 0.00 0.01 0.02 0.02 0.02 0.02 0.02 0.02 0.02 0.02 0.03
0.00 0.00 0.00 0.00 0.00 0.00 0.00 0.00 0.00 0.00 0.00 0.00 0.00 0.00 0.00 0.00 0.00 0.00 0.00 0.00 0.00 0.00 0.00 0.00 0.00 0.00 0.00 0.00 0.00 0.00 0.00 0.00 0.00 0.01 0.01 0.02 0.02 0.02 0.02 0.01 0.01 0.02 0.02
0.00 0.00 0.00 0.00 0.00 0.00 0.00 0.00 0.00 0.00 0.00 0.00 0.00 0.00 0.00 0.00 0.00 0.00 0.00 0.00 0.00 0.00 0.00 0.00 0.00 0.00 0.00 0.00 0.00 0.00 0.00 0.00 0.00 0.00 0.00 0.00 0.01 0.01 0.02 0.02 0.01 0.01 0.01
0.00 0.00 0.00 0.00 0.00 0.00 0.00 0.00 0.00 0.00 0.00 0.00 0.00 0.00 0.00 0.00 0.00 0.00 0.00 0.00 0.00 0.00 0.00 0.00 0.00 0.00 0.00 0.00 0.00 0.00 0.00 0.00 0.00 0.00 0.00 0.00 0.01 0.01 0.01 0.01 0.02 0.02 0.02
0.00 0.00 0.00 0.00 0.00 0.00 0.00 0.00 0.00 0.00 0.00 0.00 0.00 0.00 0.00 0.00 0.00 0.00 0.00 0.00 0.00 0.00 0.00 0.00 0.00 0.00 0.00 0.00 0.00 0.00 0.00 0.00 0.00 0.00 0.00 0.00 0.00 0.01 0.01 0.01 0.02 0.02 0.03
0.00 0.00 0.00 0.00 0.00 0.00 0.00 0.00 0.00 0.00 0.00 0.00 0.00 0.00 0.00 0.00 0.00 0.00 0.00 0.00 0.00 0.00 0.00 0.00 0.00 0.00 0.00 0.00 0.00 0.00 0.00 0.00 0.00 0.00 0.00 0.00 0.00 0.00 0.00 0.00 0.01 0.01 0.01
0.00 0.00 0.00 0.00 0.00 0.00 0.00 0.00 0.00 0.00 0.00 0.00 0.00 0.00 0.00 0.00 0.00 0.00 0.00 0.00 0.00 0.00 0.00 0.00 0.00 0.00 0.00 0.00 0.00 0.00 0.00 0.00 0.00 0.00 0.00 0.00 0.00 0.00 0.00 0.00 0.00 0.00 0.00
0.00 0.00 0.00 0.00 0.00 0.00 0.00 0.00 0.00 0.00 0.00 0.00 0.00 0.00 0.00 0.00 0.00 0.00 0.00 0.00 0.00 0.00 0.00 0.00 0.00 0.00 0.00 0.00 0.00 0.00 0.00 0.00 0.00 0.00 0.00 0.00 0.00 0.00 0.00 0.00 0.00 0.00 0.00
0.00 0.00 0.00 0.00 0.00 0.00 0.00 0.00 0.00 0.00 0.00 0.00 0.00 0.00 0.00 0.00 0.00 0.00 0.00 0.00 0.00 0.00 0.00 0.00 0.00 0.00 0.00 0.00 0.00 0.00 0.00 0.00 0.00 0.00 0.00 0.00 0.00 0.00 0.00 0.00 0.00 0.00 0.00
0.00 0.00 0.00 0.00 0.00 0.00 0.00 0.00 0.00 0.00 0.00 0.00 0.00 0.00 0.00 0.00 0.00 0.00 0.00 0.00 0.00 0.00 0.00 0.00 0.00 0.00 0.00 0.00 0.00 0.00 0.00 0.00 0.00 0.00 0.00 0.00 0.00 0.00 0.00 0.00 0.00 0.00 0.00
0.00 0.00 0.00 0.00 0.00 0.00 0.00 0.00 0.00 0.00 0.00 0.00 0.00 0.00 0.00 0.00 0.00 0.00 0.00 0.00 0.00 0.00 0.00 0.00 0.00 0.00 0.00 0.00 0.00 0.00 0.00 0.00 0.00 0.00 0.00 0.00 0.00 0.00 0.00 0.00 0.00 0.00 0.00
0.00 0.00 0.00 0.00 0.00 0.00 0.00 0.00 0.00 0.00 0.00 0.00 0.00 0.00 0.00 0.00 0.00 0.00 0.00 0.00 0.00 0.00 0.00 0.00 0.00 0.00 0.00 0.00 0.00 0.00 0.00 0.00 0.00 0.00 0.00 0.00 0.00 0.00 0.00 0.00 0.00 0.00 0.00
0.00 0.00 0.00 0.00 0.00 0.00 0.00 0.00 0.00 0.00 0.00 0.00 0.00 0.00 0.00 0.00 0.00 0.00 0.00 0.00 0.00 0.00 0.00 0.00 0.00 0.00 0.00 0.00 0.00 0.00 0.00 0.00 0.00 0.00 0.00 0.00 0.00 0.00 0.00 0.00 0.00 0.00 0.00
0.00 0.00 0.00 0.00 0.00 0.00 0.00 0.00 0.00 0.00 0.00 0.00 0.00 0.00 0.00 0.00 0.00 0.00 0.00 0.00 0.00 0.00 0.00 0.00 0.00 0.00 0.00 0.00 0.00 0.00 0.00 0.00 0.00 0.00 0.00 0.00 0.00 0.00 0.00 0.00 0.00 0.00 0.00
0.00 0.00 0.01 0.00 0.00 0.00 0.00 0.00 0.00 0.00 0.00 0.00 0.00 0.00 0.00 0.00 0.00 0.00 0.00 0.00 0.00 0.00 0.00 0.00 0.00 0.00 0.00 0.00 0.00 0.00 0.00 0.00 0.00 0.00 0.00 0.00 0.00 0.00 0.01 0.01 0.01 0.01 0.01
MSLP
1009.91 1010.09 1010.24 1010.38 1010.49 1010.60 1010.69 1010.79 1010.89 1011.00 1011.12 1011.25 1011.38 1011.50 1011.60 1011.67 1011.73 1011.77 1011.80 1011.84 1011.88 1011.94 1012.01 1012.09 1012.18 1012.26 1012.33 1012.40 1012.46 1012.52 1012.58 1012.63 1012.68 1012.72 1012.74 1012.73 1012.69 1012.62 1012.52 1012.42 1012.32 1012.25 1012.23
1009.67 1009.84 1009.99 1010.13 1010.26 1010.38 1010.50 1010.63 1010.77 1010.91 1011.06 1011.21 1011.36 1011.49 1011.60 1011.70 1011.78 1011.84 1011.90 1011.96 1012.03 1012.10 1012.17 1012.25 1012.34 1012.42 1012.50 1012.59 1012.69 1012.79 1012.89 1012.99 1013.09 1013.16 1013.19 1013.19 1013.13 1013.03 1012.89 1012.74 1012.59 1012.46 1012.36
1009.42 1009.62 1009.79 1009.95 1010.10 1010.24 1010.39 1010.55 1010.71 1010.88 1011.05 1011.22 1011.38 1011.52 1011.65 1011.76 1011.85 1011.94 1012.01 1012.08 1012.16 1012.23 1012.30 1012.38 1012.47 1012.55 1012.65 1012.76 1012.88 1013.02 1013.16 1013.30 1013.43 1013.53 1013.58 1013.58 1013.52 1013.41 1013.25 1013.07 1012.89 1012.71 1012.57
1009.14 1009.40 1009.62 1009.82 1010.00 1010.17 1010.34 1010.51 1010.69 1010.87 1011.05 1011.24 1011.41 1011.57 1011.71 1011.83 1011.94 1012.03 1012.11 1012.19 1012.25 1012.32 1012.39 1012.46 1012.54 1012.63 1012.74 1012.87 1013.02 1013.18 1013.35 1013.52 1013.67 1013.79 1013.85 1013.86 1013.81 1013.70 1013.55 1013.36 1013.17 1012.98 1012.80
1008.81 1009.15 1009.45 1009.70 1009.92 1010.11 1010.29 1010.47 1010.65 1010.84 1011.03 1011.22 1011.41 1011.58 1011.73 1011.87 1011.99 1012.09 1012.17 1012.24 1012.30 1012.35 1012.40 1012.47 1012.54 1012.63 1012.75 1012.88 1013.05 1013.23 1013.42 1013.60 1013.77 1013.90 1013.97 1013.99 1013.95 1013.86 1013.72 1013.55 1013.37 1013.18 1013.00
1008.39 1008.84 1009.22 1009.54 1009.79 1010.00 1010.19 1010.37 1010.54 1010.73 1010.92 1011.11 1011.31 1011.50 1011.67 1011.82 1011.95 1012.06 1012.14 1012.20 1012.25 1012.29 1012.33 1012.38 1012.44 1012.53 1012.64 1012.79 1012.96 1013.15 1013.35 1013.54 1013.71 1013.84 1013.92 1013.95 1013.93 1013.86 1013.75 1013.61 1013.45 1013.28 1013.10
1007.90 1008.45 1008.91 1009.28 1009.57 1009.80 1009.98 1010.15 1010.31 1010.48 1010.67 1010.87 1011.08 1011.28 1011.48 1011.65 1011.79 1011.91 1012.00 1012.05 1012.09 1012.12 1012.14 1012.18 1012.24 1012.32 1012.44 1012.59 1012.77 1012.97 1013.16 1013.35 1013.52 1013.65 1013.73 1013.76 1013.75 1013.69 1013.61 1013.50 1013.38 1013.24 1013.08
1007.32 1007.96 1008.49 1008.91 1009.23 1009.47 1009.65 1009.80 1009.95 1010.11 1010.29 1010.49 1010.71 1010.93 1011.15 1011.35 1011.51 1011.64 1011.74 1011.79 1011.83 1011.85 1011.87 1011.90 1011.95 1012.04 1012.16 1012.32 1012.50 1012.70 1012.90 1013.08 1013.24 1013.35 1013.43 1013.45 1013.45 1013.41 1013.34 1013.27 1013.17 1013.06 1012.93
1006.70 1007.40 1007.98 1008.44 1008.79 1009.04 1009.22 1009.37 1009.51 1009.66 1009.84 1010.05 1010.28 1010.52 1010.75 1010.97 1011.15 1011.30 1011.40 1011.46 1011.50 1011.52 1011.54 1011.57 1011.63 1011.72 1011.85 1012.02 1012.21 1012.41 1012.61 1012.79 1012.93 1013.03 1013.09 1013.11 1013.10 1013.06 1013.01 1012.94 1012.87 1012.79 1012.67
1006.08 1006.80 1007.42 1007.91 1008.29 1008.56 1008.76 1008.92 1009.07 1009.23 1009.42 1009.63 1009.87 1010.13 1010.38 1010.61 1010.80 1010.96 1011.07 1011.13 1011.17 1011.19 1011.21 1011.25 1011.32 1011.42 1011.57 1011.75 1011.95 1012.16 1012.36 1012.54 1012.67 1012.76 1012.80 1012.81 1012.78 1012.73 1012.67 1012.61 1012.55 1012.47 1012.37
1005.49 1006.22 1006.86 1007.39 1007.80 1008.11 1008.35 1008.55 1008.73 1008.92 1009.12 1009.36 1009.61 1009.87 1010.13 1010.36 1010.56 1010.71 1010.82 1010.88 1010.91 1010.93 1010.95 1011.00 1011.08 1011.20 1011.36 1011.56 1011.78 1012.00 1012.21 1012.38 1012.51 1012.59 1012.61 1012.60 1012.55 1012.48 1012.41 1012.34 1012.27 1012.19 1012.09
1004.96 1005.68 1006.34 1006.91 1007.38 1007.76 1008.07 1008.33 1008.57 1008.81 1009.05 1009.30 1009.57 1009.84 1010.09 1010.31 1010.49 1010.63 1010.72 1010.76 1010.78 1010.79 1010.82 1010.86 1010.95 1011.09 1011.27 1011.48 1011.72 1011.96 1012.17 1012.35 1012.47 1012.54 1012.56 1012.52 1012.45 1012.37 1012.27 1012.18 1012.08 1011.99 1011.89
1004.48 1005.19 1005.87 1006.49 1007.04 1007.52 1007.93 1008.29 1008.62 1008.92 1009.21 1009.50 1009.78 1010.04 1010.28 1010.48 1010.63 1010.74 1010.79 1010.81 1010.81 1010.81 1010.82 1010.87 1010.96 1011.11 1011.30 1011.53 1011.78 1012.03 1012.25 1012.44 1012.56 1012.63 1012.63 1012.58 1012.50 1012.39 1012.27 1012.15 1012.03 1011.93 1011.81
1004.04 1004.73 1005.44 1006.13 1006.78 1007.37 1007.91 1008.39 1008.82 1009.21 1009.57 1009.90 1010.19 1010.45 1010.66 1010.83 1010.95 1011.01 1011.03 1011.02 1010.99 1010.97 1010.97 1011.01 1011.11 1011.25 1011.45 1011.69 1011.95 1012.20 1012.43 1012.62 1012.75 1012.81 1012.81 1012.75 1012.65 1012.53 1012.39 1012.25 1012.11 1011.98 1011.85
1003.60 1004.28 1005.02 1005.78 1006.54 1007.26 1007.93 1008.54 1009.09 1009.57 1010.00 1010.37 1010.68 1010.94 1011.13 1011.27 1011.35 1011.38 1011.36 1011.32 1011.28 1011.24 1011.23 1011.26 1011.35 1011.50 1011.69 1011.93 1012.19 1012.44 1012.67 1012.86 1012.98 1013.05 1013.04 1012.98 1012.87 1012.74 1012.59 1012.43 1012.28 1012.12 1011.97
1003.12 1003.79 1004.55 1005.38 1006.24 1007.07 1007.87 1008.61 1009.27 1009.85 1010.35 1010.77 1011.10 1011.36 1011.55 1011.66 1011.72 1011.73 1011.69 1011.64 1011.58 1011.54 1011.53 1011.56 1011.65 1011.79 1011.98 1012.21 1012.45 1012.70 1012.92 1013.10 1013.22 1013.28 1013.28 1013.21 1013.11 1012.97 1012.81 1012.64 1012.48 1012.31 1012.14
1002.60 1003.24 1004.02 1004.90 1005.82 1006.75 1007.65 1008.49 1009.25 1009.91 1010.47 1010.94 1011.30 1011.58 1011.77 1011.89 1011.95 1011.96 1011.93 1011.89 1011.85 1011.82 1011.82 1011.86 1011.95 1012.09 1012.27 1012.49 1012.72 1012.94 1013.14 1013.31 1013.42 1013.47 1013.47 1013.40 1013.30 1013.16 1013.00 1012.83 1012.66 1012.48 1012.30
1002.06 1002.65 1003.41 1004.30 1005.26 1006.24 1007.21 1008.11 1008.94 1009.66 1010.28 1010.79 1011.19 1011.50 1011.72 1011.88 1011.97 1012.01 1012.02 1012.02 1012.01 1012.02 1012.05 1012.11 1012.22 1012.36 1012.53 1012.73 1012.94 1013.15 1013.33 1013.47 1013.56 1013.61 1013.59 1013.53 1013.43 1013.29 1013.13 1012.96 1012.78 1012.60 1012.40
1001.51 1002.05 1002.77 1003.63 1004.57 1005.56 1006.54 1007.47 1008.33 1009.09 1009.75 1010.31 1010.76 1011.12 1011.39 1011.60 1011.75 1011.86 1011.94 1012.00 1012.06 1012.12 1012.20 1012.30 1012.43 1012.58 1012.75 1012.94 1013.13 1013.30 1013.46 1013.58 1013.65 1013.68 1013.66 1013.59 1013.49 1013.35 1013.20 1013.02 1012.84 1012.64 1012.43
1001.03 1001.48 1002.13 1002.92 1003.81 1004.75 1005.70 1006.62 1007.48 1008.26 1008.95 1009.55 1010.06 1010.48 1010.83 1011.12 1011.35 1011.55 1011.72 1011.87 1012.00 1012.14 1012.27 1012.41 1012.57 1012.74 1012.91 1013.09 1013.26 1013.42 1013.55 1013.65 1013.71 1013.72 1013.69 1013.62 1013.51 1013.37 1013.21 1013.03 1012.83 1012.62 1012.39
1000.65 1001.01 1001.55 1002.24 1003.04 1003.91 1004.79 1005.67 1006.51 1007.29 1008.00 1008.63 1009.20 1009.69 1010.13 1010.51 1010.85 1011.14 1011.41 1011.65 1011.87 1012.08 1012.27 1012.46 1012.65 1012.84 1013.02 1013.20 1013.37 1013.51 1013.63 1013.71 1013.76 1013.76 1013.72 1013.64 1013.53 1013.38 1013.21 1013.01 1012.80 1012.56 1012.31
1000.39 1000.64 1001.06 1001.64 1002.33 1003.09 1003.90 1004.72 1005.52 1006.29 1007.01 1007.69 1008.31 1008.88 1009.40 1009.88 1010.31 1010.71 1011.07 1011.40 1011.70 1011.97 1012.22 1012.46 1012.69 1012.90 1013.09 1013.28 1013.44 1013.59 1013.70 1013.78 1013.82 1013.82 1013.78 1013.70 1013.57 1013.41 1013.22 1013.01 1012.77 1012.51 1012.22
1000.20 1000.36 1000.67 1001.13 1001.71 1002.37 1003.09 1003.85 1004.62 1005.37 1006.11 1006.82 1007.50 1008.14 1008.74 1009.30 1009.83 1010.31 1010.75 1011.15 1011.51 1011.84 1012.14 1012.42 1012.67 1012.91 1013.13 1013.33 1013.51 1013.67 1013.79 1013.88 1013.92 1013.93 1013.89 1013.80 1013.66 1013.49 1013.28 1013.04 1012.77 1012.47 1012.15
1000.02 1000.09 1000.32 1000.68 1001.16 1001.74 1002.39 1003.10 1003.84 1004.60 1005.35 1006.10 1006.83 1007.53 1008.20 1008.83 1009.42 1009.97 1010.46 1010.92 1011.33 1011.70 1012.04 1012.35 1012.63 1012.90 1013.14 1013.37 1013.57 1013.75 1013.89 1014.00 1014.06 1014.07 1014.03 1013.93 1013.79 1013.60 1013.36 1013.09 1012.78 1012.44 1012.08
999.75 999.76 999.92 1000.21 1000.63 1001.16 1001.77 1002.46 1003.19 1003.95 1004.74 1005.52 1006.29 1007.05 1007.77 1008.45 1009.09 1009.68 1010.22 1010.71 1011.15 1011.55 1011.92 1012.26 1012.57 1012.86 1013.14 1013.39 1013.63 1013.83 1014.00 1014.12 1014.20 1014.22 1014.18 1014.07 1013.91 1013.70 1013.43 1013.12 1012.78 1012.40 1012.00
999.29 999.28 999.41 999.68 1000.07 1000.58 1001.19 1001.88 1002.62 1003.41 1004.23 1005.05 1005.86 1006.66 1007.42 1008.14 1008.81 1009.43 1010.00 1010.51 1010.98 1011.40 1011.79 1012.15 1012.49 1012.82 1013.12 1013.41 1013.67 1013.90 1014.09 1014.22 1014.31 1014.32 1014.27 1014.15 1013.97 1013.72 1013.42 1013.08 1012.69 1012.28 1011.84
Thickness
5730 5727 5723 5719 5716 5713 5709 5706 5703 5701 5699 5696 5693 5691 5689 5686 5684 5681 5679 5678 5677 5677 5678 5677 5676 5676 5676 5677 5679 5680 5682 5682 5680 5686 5693 5698 5700 5701 5702 5705 5707 5709 5711
5731 5728 5724 5721 5717 5714 5711 5708 5705 5703 5701 5698 5695 5692 5690 5687 5685 5682 5679 5678 5677 5676 5676 5676 5675 5675 5674 5674 5675 5677 5679 5680 5679 5679 5684 5689 5691 5694 5696 5697 5701 5703 5705
5732 5728 5725 5722 5718 5715 5713 5710 5707 5704 5701 5699 5697 5693 5691 5688 5686 5683 5681 5680 5678 5677 5676 5675 5674 5673 5672 5672 5673 5674 5675 5678 5677 5676 5678 5682 5685 5688 5689 5691 5694 5696 5699
5732 5728 5725 5723 5720 5718 5716 5712 5709 5706 5702 5699 5698 5695 5692 5689 5687 5684 5682 5680 5679 5678 5677 5676 5674 5672 5670 5670 5670 5671 5672 5672 5673 5673 5673 5675 5677 5682 5682 5681 5683 5687 5690
5732 5728 5726 5725 5723 5719 5716 5713 5710 5707 5704 5700 5697 5695 5693 5690 5687 5683 5681 5680 5678 5678 5677 5676 5675 5673 5671 5669 5668 5667 5668 5667 5668 5668 5668 5669 5670 5672 5673 5675 5675 5678 5682
5733 5729 5727 5725 5722 5719 5716 5713 5709 5706 5704 5701 5698 5695 5692 5690 5686 5683 5680 5677 5676 5676 5676 5676 5675 5673 5671 5669 5668 5667 5666 5664 5662 5662 5662 5663 5665 5667 5668 5669 5668 5669 5670
5733 5730 5727 5725 5721 5719 5716 5712 5709 5706 5703 5700 5698 5695 5691 5689 5686 5683 5680 5677 5675 5675 5675 5675 5675 5674 5671 5668 5667 5666 5665 5664 5663 5660 5658 5658 5660 5662 5662 5662 5662 5661 5662
5734 5731 5728 5724 5721 5718 5715 5711 5709 5706 5703 5700 5698 5695 5692 5689 5686 5684 5681 5677 5675 5675 5675 5675 5674 5672 5670 5668 5665 5663 5662 5663 5662 5660 5659 5659 5659 5659 5658 5657 5656 5657 5659
5733 5731 5728 5725 5720 5717 5713 5711 5709 5706 5703 5701 5699 5696 5692 5689 5687 5684 5681 5677 5675 5675 5676 5676 5674 5671 5669 5666 5663 5660 5659 5660 5662 5661 5659 5658 5657 5657 5655 5652 5651 5650 5650
5734 5731 5729 5725 5720 5716 5713 5711 5709 5706 5703 5701 5698 5696 5693 5689 5687 5684 5680 5677 5675 5675 5676 5675 5673 5670 5667 5663 5659 5656 5653 5654 5655 5655 5654 5654 5654 5653 5653 5649 5647 5645 5644
5735 5731 5727 5724 5720 5715 5712 5709 5707 5704 5701 5698 5696 5695 5692 5689 5686 5682 5678 5674 5672 5672 5671 5670 5668 5667 5663 5659 5656 5652 5650 5649 5649 5648 5648 5648 5649 5648 5648 5646 5644 5641 5639
5731 5726 5722 5719 5717 5714 5708 5705 5703 5700 5696 5693 5691 5689 5688 5686 5683 5679 5676 5672 5670 5667 5665 5664 5663 5661 5658 5654 5651 5648 5646 5645 5643 5642 5641 5640 5640 5639 5639 5639 5638 5637 5636
5725 5720 5717 5714 5711 5708 5704 5699 5697 5695 5691 5689 5686 5684 5682 5680 5677 5675 5672 5669 5667 5663 5661 5658 5657 5654 5651 5648 5645 5643 5640 5638 5636 5634 5633 5632 5631 5631 5631 5631 5630 5630 5630
5718 5714 5711 5707 5704 5701 5698 5695 5691 5689 5686 5684 5682 5679 5676 5673 5668 5666 5664 5663 5661 5658 5655 5652 5650 5647 5644 5641 5638 5635 5633 5630 5628 5626 5624 5624 5623 5622 5621 5621 5620 5620 5620
5711 5708 5705 5701 5698 5694 5689 5685 5683 5679 5679 5678 5676 5673 5669 5663 5659 5658 5656 5654 5652 5650 5648 5646 5643 5639 5635 5632 5630 5627 5625 5622 5619 5617 5615 5614 5612 5612 5611 5611 5610 5610 5609
5704 5702 5699 5695 5692 5686 5679 5671 5669 5669 5669 5669 5668 5665 5660 5657 5653 5651 5649 5648 5646 5645 5642 5638 5634 5630 5626 5623 5620 5617 5614 5612 5609 5607 5605 5603 5602 5601 5600 5600 5599 5598 5598
5698 5696 5693 5690 5686 5681 5675 5669 5661 5656 5656 5657 5656 5655 5652 5648 5646 5644 5642 5640 5638 5636 5632 5627 5624 5620 5617 5614 5610 5607 5604 5602 5600 5598 5595 5593 5592 5591 5589 5588 5587 5587 5586
5692 5690 5687 5684 5681 5678 5673 5667 5661 5655 5648 5644 5644 5644 5642 5640 5638 5636 5633 5631 5628 5625 5622 5618 5614 5611 5607 5604 5600 5597 5595 5592 5590 5588 5585 5584 5582 5580 5578 5577 5575 5575 5574
5683 5681 5680 5678 5675 5672 5669 5664 5659 5653 5648 5642 5636 5633 5633 5631 5629 5627 5625 5622 5619 5616 5613 5609 5606 5602 5599 5595 5591 5588 5586 5583 5580 5578 5575 5573 5571 5569 5567 5565 5564 5564 5563
5673 5674 5672 5669 5667 5664 5662 5659 5655 5650 5645 5639 5634 5629 5625 5622 5620 5618 5617 5614 5611 5608 5604 5600 5597 5594 5590 5586 5582 5579 5575 5573 5570 5567 5564 5562 5560 5557 5555 5553 5552 5550 5549
5662 5662 5662 5661 5659 5658 5655 5653 5650 5646 5642 5637 5632 5627 5623 5619 5617 5614 5610 5607 5603 5599 5596 5591 5588 5584 5580 5576 5572 5568 5566 5562 5559 5556 5552 5549 5547 5544 5542 5541 5539 5538 5537
5650 5651 5651 5651 5650 5649 5648 5646 5643 5640 5636 5630 5624 5620 5617 5614 5611 5607 5603 5599 5596 5592 5588 5583 5578 5574 5570 5566 5562 5557 5554 5550 5547 5543 5539 5536 5533 5531 5529 5527 5525 5524 5523
5637 5639 5639 5640 5640 5639 5638 5637 5635 5632 5628 5623 5618 5613 5608 5606 5603 5599 5595 5591 5587 5582 5578 5573 5568 5564 5560 5556 5551 5546 5541 5537 5533 5529 5525 5522 5519 5517 5515 5513 5511 5510 5508
5623 5626 5627 5628 5629 5629 5629 5628 5626 5624 5620 5616 5612 5607 5602 5598 5595 5591 5587 5582 5577 5572 5568 5563 5558 5554 5549 5545 5540 5534 5528 5524 5520 5515 5512 5508 5505 5503 5501 5499 5498 5496 5494
5608 5612 5615 5617 5618 5619 5619 5618 5616 5614 5612 5608 5604 5600 5595 5591 5586 5582 5577 5572 5567 5562 5557 5552 5547 5542 5538 5533 5527 5521 5515 5511 5506 5502 5498 5495 5492 5490 5487 5485 5484 5482 5480
5594 5599 5602 5605 5607 5608 5609 5608 5607 5605 5602 5599 5596 5592 5587 5582 5577 5572 5567 5561 5556 5550 5545 5540 5536 5531 5526 5520 5514 5508 5503 5499 5494 5490 5486 5483 5480 5477 5475 5473 5471 5469 5467